| time (UTC) | temp F | wind direction | speed MPH | gust MPH | rain 1hr in | rain 24hr in | rain mn in | humidity % | barometer mb |
| 20260507124726 | 49 | 119 | 4.0 | 4.0 | 0.00 | 0.00 | 0.00 | 73 | 1014.4 |
| 20260507124222 | 49 | 110 | 3.0 | 5.0 | 0.00 | 0.00 | 0.00 | 72 | 1014.2 |
| 20260507123721 | 49 | 113 | 3.0 | 4.0 | 0.00 | 0.00 | 0.00 | 72 | 1014.2 |
| 20260507123218 | 49 | 114 | 4.0 | 4.0 | 0.00 | 0.00 | 0.00 | 71 | 1014.1 |
| 20260507122713 | 50 | 105 | 6.0 | 7.0 | 0.00 | 0.00 | 0.00 | 68 | 1014.1 |
| 20260507122209 | 52 | 102 | 5.0 | 6.0 | 0.00 | 0.00 | 0.00 | 65 | 1013.9 |
| 20260507121705 | 49 | 64 | 6.0 | 6.0 | 0.00 | 0.00 | 0.00 | 69 | 1014.0 |
| 20260507121201 | 50 | 108 | 4.0 | 8.0 | 0.00 | 0.00 | 0.00 | 69 | 1014.1 |
| 20260507120657 | 50 | 94 | 5.0 | 6.0 | 0.00 | 0.00 | 0.00 | 69 | 1013.9 |
| 20260507120154 | 49 | 96 | 5.0 | 6.0 | 0.00 | 0.00 | 0.00 | 70 | 1013.7 |
| 20260507115651 | 49 | 107 | 4.0 | 5.0 | 0.00 | 0.00 | 0.00 | 71 | 1013.9 |
| 20260507115146 | 49 | 110 | 5.0 | 7.0 | 0.00 | 0.00 | 0.00 | 70 | 1013.8 |
| 20260507114643 | 50 | 78 | 3.0 | 3.0 | 0.00 | 0.00 | 0.00 | 67 | 1013.7 |
| 20260507114140 | 50 | 96 | 0.0 | 4.0 | 0.00 | 0.00 | 0.00 | 68 | 1013.8 |
| 20260507113637 | 51 | 108 | 5.0 | 7.0 | 0.00 | 0.00 | 0.00 | 66 | 1013.8 |
| 20260507113133 | 51 | 117 | 6.0 | 6.0 | 0.00 | 0.00 | 0.00 | 65 | 1013.8 |
| 20260507112632 | 50 | 98 | 2.0 | 5.0 | 0.00 | 0.00 | 0.00 | 67 | 1013.8 |
| 20260507112128 | 51 | 99 | 4.0 | 4.0 | 0.00 | 0.00 | 0.00 | 66 | 1013.8 |
| 20260507111626 | 50 | 120 | 1.0 | 3.0 | 0.00 | 0.00 | 0.00 | 68 | 1013.6 |
| 20260507111122 | 51 | 99 | 3.0 | 4.0 | 0.00 | 0.00 | 0.00 | 67 | 1013.6 |
| 20260507110618 | 51 | 97 | 3.0 | 5.0 | 0.00 | 0.00 | 0.00 | 68 | 1013.5 |
| 20260507110115 | 52 | 109 | 4.0 | 4.0 | 0.00 | 0.00 | 0.00 | 64 | 1013.2 |
| 20260507105612 | 51 | 108 | 3.0 | 3.0 | 0.00 | 0.00 | 0.00 | 67 | 1013.5 |
| 20260507105108 | 51 | 117 | 2.0 | 3.0 | 0.00 | 0.00 | 0.00 | 67 | 1013.6 |
| 20260507104606 | 52 | 120 | 3.0 | 5.0 | 0.00 | 0.00 | 0.00 | 65 | 1013.1 |
| 20260507104102 | 54 | 59 | 5.0 | 6.0 | 0.00 | 0.00 | 0.00 | 62 | 1013.4 |
| 20260507103558 | 57 | 345 | 2.0 | 4.0 | 0.00 | 0.00 | 0.00 | 56 | 1013.0 |
| 20260507103055 | 57 | 85 | 2.0 | 3.0 | 0.00 | 0.00 | 0.00 | 53 | 1013.0 |
| 20260507102551 | 57 | 208 | 5.0 | 5.0 | 0.00 | 0.00 | 0.00 | 52 | 1013.0 |
| 20260507102047 | 54 | 246 | 2.0 | 6.0 | 0.00 | 0.00 | 0.00 | 60 | 1012.8 |
| 20260507101543 | 54 | 103 | 5.0 | 5.0 | 0.00 | 0.00 | 0.00 | 63 | 1013.1 |
| 20260507101039 | 55 | 96 | 3.0 | 5.0 | 0.00 | 0.00 | 0.00 | 61 | 1013.1 |
| 20260507100537 | 56 | 28 | 2.0 | 3.0 | 0.00 | 0.00 | 0.00 | 57 | 1013.0 |
| 20260507100035 | 57 | 117 | 0.0 | 2.0 | 0.00 | 0.00 | 0.00 | 57 | 1013.2 |
| 20260507095533 | 59 | 195 | 0.0 | 4.0 | 0.00 | 0.00 | 0.00 | 54 | 1013.0 |
| 20260507095029 | 59 | 197 | 2.0 | 6.0 | 0.00 | 0.00 | 0.00 | 53 | 1012.8 |
| 20260507094525 | 60 | 278 | 4.0 | 6.0 | 0.00 | 0.00 | 0.00 | 52 | 1012.7 |
| 20260507094022 | 59 | 212 | 3.0 | 3.0 | 0.00 | 0.00 | 0.00 | 54 | 1012.9 |
| 20260507093520 | 59 | 236 | 5.0 | 8.0 | 0.00 | 0.00 | 0.00 | 54 | 1012.6 |
| 20260507093018 | 58 | 154 | 2.0 | 4.0 | 0.00 | 0.00 | 0.00 | 57 | 1012.6 |
| 20260507092514 | 56 | 254 | 2.0 | 5.0 | 0.00 | 0.00 | 0.00 | 60 | 1012.6 |
| 20260507092011 | 55 | 104 | 3.0 | 3.0 | 0.00 | 0.00 | 0.00 | 63 | 1012.8 |
| 20260507091508 | 54 | 90 | 0.0 | 3.0 | 0.00 | 0.00 | 0.00 | 64 | 1012.7 |
| 20260507091003 | 53 | 101 | 3.0 | 4.0 | 0.00 | 0.00 | 0.00 | 66 | 1012.8 |
| 20260507090459 | 54 | 90 | 3.0 | 5.0 | 0.00 | 0.00 | 0.00 | 65 | 1012.7 |
| 20260507085956 | 54 | 106 | 4.0 | 5.0 | 0.00 | 0.00 | 0.00 | 65 | 1012.8 |
| 20260507085454 | 54 | 103 | 4.0 | 4.0 | 0.00 | 0.00 | 0.00 | 65 | 1012.7 |
| 20260507084950 | 54 | 107 | 3.0 | 3.0 | 0.00 | 0.00 | 0.00 | 64 | 1012.7 |
| 20260507084447 | 55 | 100 | 4.0 | 4.0 | 0.00 | 0.00 | 0.00 | 62 | 1012.7 |
| 20260507083944 | 55 | 100 | 2.0 | 3.0 | 0.00 | 0.00 | 0.00 | 62 | 1012.8 |
| 20260507083440 | 56 | 109 | 3.0 | 3.0 | 0.00 | 0.00 | 0.00 | 60 | 1012.9 |
| 20260507082937 | 56 | 101 | 3.0 | 4.0 | 0.00 | 0.00 | 0.00 | 62 | 1013.2 |
| 20260507082433 | 56 | 90 | 3.0 | 4.0 | 0.00 | 0.00 | 0.00 | 61 | 1012.9 |
| 20260507081930 | 58 | 103 | 3.0 | 3.0 | 0.00 | 0.00 | 0.00 | 58 | 1012.6 |
| 20260507081426 | 59 | 187 | 1.0 | 2.0 | 0.00 | 0.00 | 0.00 | 57 | 1012.7 |
| 20260507080923 | 59 | 180 | 0.0 | 3.0 | 0.00 | 0.00 | 0.00 | 54 | 1012.8 |
| 20260507080419 | 60 | 270 | 0.0 | 3.0 | 0.00 | 0.00 | 0.00 | 54 | 1012.6 |
| 20260507075914 | 61 | 246 | 0.0 | 5.0 | 0.00 | 0.00 | 0.00 | 52 | 1012.4 |
| 20260507075411 | 61 | 258 | 0.0 | 3.0 | 0.00 | 0.00 | 0.00 | 52 | 1012.5 |
| 20260507074908 | 61 | 262 | 1.0 | 8.0 | 0.00 | 0.00 | 0.00 | 51 | 1012.5 |
| 20260507074404 | 60 | 251 | 0.0 | 1.0 | 0.00 | 0.00 | 0.00 | 53 | 1012.4 |
| 20260507073902 | 61 | 301 | 3.0 | 5.0 | 0.00 | 0.00 | 0.00 | 52 | 1012.5 |
| 20260507073358 | 60 | 194 | 3.0 | 5.0 | 0.00 | 0.00 | 0.00 | 54 | 1012.3 |
| 20260507072855 | 59 | 180 | 0.0 | 3.0 | 0.00 | 0.00 | 0.00 | 56 | 1012.5 |
| 20260507072353 | 58 | 185 | 1.0 | 3.0 | 0.00 | 0.00 | 0.00 | 58 | 1012.8 |
| 20260507071850 | 59 | 135 | 2.0 | 2.0 | 0.00 | 0.00 | 0.00 | 55 | 1012.5 |
| 20260507071348 | 59 | 148 | 2.0 | 3.0 | 0.00 | 0.00 | 0.00 | 55 | 1012.6 |
| 20260507070843 | 60 | 97 | 1.0 | 3.0 | 0.00 | 0.00 | 0.00 | 54 | 1012.6 |
| 20260507070341 | 61 | 97 | 1.0 | 2.0 | 0.00 | 0.00 | 0.00 | 52 | 1012.7 |
| 20260507065838 | 62 | 90 | 0.0 | 3.0 | 0.00 | 0.00 | 0.00 | 50 | 1012.7 |
| 20260507065334 | 63 | 252 | 3.0 | 5.0 | 0.00 | 0.00 | 0.00 | 49 | 1012.5 |
| 20260507064831 | 63 | 287 | 2.0 | 5.0 | 0.00 | 0.00 | 0.00 | 48 | 1012.7 |
| 20260507064330 | 64 | 283 | 6.0 | 9.0 | 0.00 | 0.00 | 0.00 | 47 | 1012.4 |
| 20260507063827 | 64 | 286 | 2.0 | 9.0 | 0.00 | 0.00 | 0.00 | 47 | 1012.5 |
| 20260507063324 | 64 | 213 | 4.0 | 10.0 | 0.00 | 0.00 | 0.00 | 47 | 1012.8 |
| 20260507062821 | 64 | 228 | 4.0 | 9.0 | 0.00 | 0.00 | 0.00 | 47 | 1012.5 |
| 20260507062318 | 64 | 270 | 3.0 | 7.0 | 0.00 | 0.00 | 0.00 | 46 | 1012.6 |
| 20260507061816 | 64 | 303 | 4.0 | 7.0 | 0.00 | 0.00 | 0.00 | 45 | 1012.5 |
| 20260507061314 | 64 | 270 | 2.0 | 5.0 | 0.00 | 0.00 | 0.00 | 46 | 1012.6 |
| 20260507060812 | 64 | 278 | 3.0 | 7.0 | 0.00 | 0.00 | 0.00 | 45 | 1012.6 |
| 20260507060308 | 64 | 253 | 3.0 | 11.0 | 0.00 | 0.00 | 0.00 | 45 | 1012.6 |
| 20260507055805 | 64 | 227 | 3.0 | 5.0 | 0.00 | 0.00 | 0.00 | 44 | 1012.7 |
| 20260507055300 | 64 | 228 | 4.0 | 12.0 | 0.00 | 0.00 | 0.00 | 43 | 1012.7 |
| 20260507054756 | 64 | 264 | 3.0 | 9.0 | 0.00 | 0.00 | 0.00 | 43 | 1012.7 |
| 20260507054253 | 64 | 188 | 0.0 | 3.0 | 0.00 | 0.00 | 0.00 | 43 | 1012.6 |
| 20260507053750 | 64 | 240 | 1.0 | 5.0 | 0.00 | 0.00 | 0.00 | 43 | 1012.6 |
| 20260507053248 | 64 | 253 | 3.0 | 3.0 | 0.00 | 0.00 | 0.00 | 42 | 1012.7 |
| 20260507052747 | 65 | 285 | 3.0 | 8.0 | 0.00 | 0.00 | 0.00 | 41 | 1012.5 |
| 20260507052243 | 65 | 291 | 6.0 | 10.0 | 0.00 | 0.00 | 0.00 | 41 | 1012.6 |
| 20260507051741 | 64 | 235 | 4.0 | 7.0 | 0.00 | 0.00 | 0.00 | 41 | 1012.3 |
| 20260507051237 | 63 | 157 | 1.0 | 3.0 | 0.00 | 0.00 | 0.00 | 43 | 1012.5 |
| 20260507050734 | 63 | 261 | 0.0 | 3.0 | 0.00 | 0.00 | 0.00 | 42 | 1012.6 |
| 20260507050231 | 64 | 248 | 3.0 | 4.0 | 0.00 | 0.00 | 0.00 | 41 | 1012.3 |
| 20260507045728 | 64 | 270 | 0.0 | 4.0 | 0.00 | 0.00 | 0.00 | 40 | 1012.4 |
| 20260507045224 | 64 | 251 | 1.0 | 6.0 | 0.00 | 0.00 | 0.00 | 41 | 1012.4 |
| 20260507044722 | 64 | 255 | 5.0 | 5.0 | 0.00 | 0.00 | 0.00 | 41 | 1012.8 |
| 20260507044218 | 65 | 180 | 2.0 | 2.0 | 0.00 | 0.00 | 0.00 | 40 | 1012.4 |
| 20260507043714 | 64 | 258 | 0.0 | 5.0 | 0.00 | 0.00 | 0.00 | 40 | 1012.5 |
| 20260507043211 | 64 | 261 | 0.0 | 8.0 | 0.00 | 0.00 | 0.00 | 40 | 1012.5 |
| 20260507042708 | 64 | 157 | 2.0 | 6.0 | 0.00 | 0.00 | 0.00 | 41 | 1012.6 |
| 20260507042202 | 63 | 261 | 0.0 | 5.0 | 0.00 | 0.00 | 0.00 | 43 | 1012.7 |
| 20260507041700 | 64 | 262 | 0.0 | 1.0 | 0.00 | 0.00 | 0.00 | 42 | 1012.5 |
| 20260507041156 | 65 | 288 | 2.0 | 6.0 | 0.00 | 0.00 | 0.00 | 39 | 1012.6 |
| 20260507040653 | 64 | 274 | 3.0 | 5.0 | 0.00 | 0.00 | 0.00 | 41 | 1012.5 |
| 20260507040150 | 65 | 273 | 4.0 | 6.0 | 0.00 | 0.00 | 0.00 | 40 | 1012.7 |
| 20260507035646 | 65 | 272 | 5.0 | 6.0 | 0.00 | 0.00 | 0.00 | 39 | 1012.5 |
| 20260507035142 | 65 | 251 | 1.0 | 5.0 | 0.00 | 0.00 | 0.00 | 41 | 1012.5 |
| 20260507034639 | 64 | 287 | 2.0 | 5.0 | 0.00 | 0.00 | 0.00 | 43 | 1012.3 |
| 20260507034136 | 63 | 18 | 0.0 | 3.0 | 0.00 | 0.00 | 0.00 | 47 | 1012.5 |
| 20260507033635 | 61 | 126 | 1.0 | 3.0 | 0.00 | 0.00 | 0.00 | 50 | 1012.4 |
| 20260507033131 | 61 | 41 | 2.0 | 5.0 | 0.00 | 0.00 | 0.00 | 49 | 1012.1 |
| 20260507032629 | 62 | 76 | 3.0 | 4.0 | 0.00 | 0.00 | 0.00 | 54 | 1012.3 |
| 20260507032124 | 63 | 106 | 3.0 | 7.0 | 0.00 | 0.00 | 0.00 | 52 | 1012.0 |
| 20260507031622 | 60 | 101 | 3.0 | 4.0 | 0.00 | 0.00 | 0.00 | 58 | 1011.9 |
| 20260507031118 | 60 | 105 | 3.0 | 6.0 | 0.00 | 0.00 | 0.00 | 58 | 1011.8 |
| 20260507030615 | 60 | 107 | 0.0 | 4.0 | 0.00 | 0.00 | 0.00 | 60 | 1011.7 |
| 20260507030113 | 60 | 90 | 2.0 | 3.0 | 0.00 | 0.00 | 0.00 | 57 | 1011.8 |
| 20260507025610 | 60 | 125 | 2.0 | 3.0 | 0.00 | 0.00 | 0.00 | 57 | 1011.6 |
| 20260507025107 | 61 | 65 | 2.0 | 4.0 | 0.00 | 0.00 | 0.00 | 57 | 1011.7 |
| 20260507024605 | 60 | 108 | 5.0 | 10.0 | 0.00 | 0.00 | 0.00 | 58 | 1011.5 |
| 20260507024102 | 61 | 94 | 5.0 | 11.0 | 0.00 | 0.00 | 0.00 | 57 | 1011.5 |
| 20260507023557 | 61 | 110 | 6.0 | 8.0 | 0.00 | 0.00 | 0.00 | 56 | 1011.7 |
| 20260507023055 | 62 | 88 | 6.0 | 7.0 | 0.00 | 0.00 | 0.00 | 55 | 1011.7 |
| 20260507022551 | 63 | 95 | 6.0 | 8.0 | 0.00 | 0.00 | 0.00 | 51 | 1011.5 |
| 20260507022046 | 63 | 120 | 7.0 | 8.0 | 0.00 | 0.00 | 0.00 | 49 | 1011.8 |
| 20260507021543 | 63 | 109 | 8.0 | 9.0 | 0.00 | 0.00 | 0.00 | 49 | 1011.6 |
| 20260507021040 | 63 | 135 | 4.0 | 10.0 | 0.00 | 0.00 | 0.00 | 51 | 1011.5 |
| 20260507020538 | 63 | 134 | 4.0 | 10.0 | 0.00 | 0.00 | 0.00 | 53 | 1011.7 |
| 20260507020034 | 62 | 108 | 5.0 | 7.0 | 0.00 | 0.00 | 0.00 | 54 | 1011.7 |
| 20260507015532 | 63 | 113 | 6.0 | 6.0 | 0.00 | 0.00 | 0.00 | 55 | 1011.5 |
| 20260507015029 | 63 | 123 | 5.0 | 5.0 | 0.00 | 0.00 | 0.00 | 56 | 1011.6 |
| 20260507014526 | 63 | 108 | 4.0 | 10.0 | 0.00 | 0.00 | 0.00 | 55 | 1011.7 |
| 20260507014021 | 64 | 70 | 3.0 | 8.0 | 0.00 | 0.00 | 0.00 | 50 | 1011.6 |
| 20260507013518 | 64 | 129 | 5.0 | 9.0 | 0.00 | 0.00 | 0.00 | 51 | 1011.6 |
| 20260507013016 | 64 | 106 | 3.0 | 6.0 | 0.00 | 0.00 | 0.00 | 54 | 1011.8 |
| 20260507012513 | 63 | 113 | 5.0 | 9.0 | 0.00 | 0.00 | 0.00 | 56 | 1011.7 |
| 20260507012009 | 63 | 145 | 3.0 | 7.0 | 0.00 | 0.00 | 0.00 | 60 | 1011.8 |
| 20260507011506 | 63 | 103 | 2.0 | 5.0 | 0.00 | 0.00 | 0.00 | 62 | 1011.6 |
| 20260507011002 | 63 | 92 | 5.0 | 5.0 | 0.00 | 0.00 | 0.00 | 62 | 1011.6 |
| 20260507010456 | 64 | 75 | 2.0 | 5.0 | 0.00 | 0.00 | 0.00 | 60 | 1011.9 |
| 20260507005953 | 64 | 111 | 3.0 | 3.0 | 0.00 | 0.00 | 0.00 | 60 | 1011.8 |
| 20260507005451 | 65 | 101 | 2.0 | 2.0 | 0.00 | 0.00 | 0.00 | 55 | 1012.0 |
| 20260507004947 | 65 | 90 | 0.0 | 0.0 | 0.00 | 0.00 | 0.00 | 57 | 1011.8 |
| 20260507004444 | 65 | 82 | 1.0 | 2.0 | 0.00 | 0.00 | 0.00 | 57 | 1011.6 |
| 20260507003942 | 65 | 117 | 0.0 | 2.0 | 0.00 | 0.00 | 0.00 | 56 | 1011.7 |
| 20260507003437 | 64 | 123 | 0.0 | 0.0 | 0.00 | 0.00 | 0.00 | 58 | 1011.9 |
| 20260507002932 | 64 | 95 | 3.0 | 5.0 | 0.00 | 0.00 | 0.00 | 58 | 1011.9 |
| 20260507002428 | 64 | 105 | 7.0 | 7.0 | 0.00 | 0.00 | 0.00 | 55 | 1011.8 |
| 20260507001926 | 65 | 155 | 3.0 | 5.0 | 0.00 | 0.00 | 0.00 | 57 | 1011.9 |
| 20260507001422 | 66 | 90 | 3.0 | 5.0 | 0.00 | 0.00 | 0.00 | 53 | 1011.9 |
| 20260507000920 | 66 | 8 | 0.0 | 5.0 | 0.00 | 0.00 | 0.00 | 52 | 1011.9 |
| 20260507000415 | 68 | 20 | 3.0 | 3.0 | 0.00 | 0.00 | 0.00 | 44 | 1011.5 |
| 20260506235911 | 68 | 0 | 1.0 | 3.0 | 0.00 | 0.00 | 0.00 | 42 | 1011.8 |
| 20260506235409 | 68 | 68 | 2.0 | 3.0 | 0.00 | 0.00 | 0.00 | 46 | 1011.8 |
| 20260506234904 | 68 | 270 | 5.0 | 6.0 | 0.00 | 0.00 | 0.00 | 43 | 1012.1 |
| 20260506234402 | 68 | 263 | 3.0 | 5.0 | 0.00 | 0.00 | 0.00 | 42 | 1012.1 |
| 20260506233900 | 68 | 210 | 4.0 | 4.0 | 0.00 | 0.00 | 0.00 | 44 | 1011.8 |
| 20260506233355 | 68 | 180 | 1.0 | 2.0 | 0.00 | 0.00 | 0.00 | 47 | 1011.8 |
| 20260506232852 | 67 | 90 | 0.0 | 5.0 | 0.00 | 0.00 | 0.00 | 50 | 1011.9 |
| 20260506232348 | 66 | 243 | 4.0 | 17.0 | 0.00 | 0.00 | 0.00 | 48 | 1012.1 |
| 20260506231844 | 66 | 276 | 4.0 | 14.0 | 0.00 | 0.00 | 0.00 | 51 | 1012.6 |
| 20260506231342 | 66 | 294 | 11.0 | 29.0 | 0.00 | 0.00 | 0.00 | 51 | 1012.8 |
| 20260506230839 | 69 | 270 | 4.0 | 8.0 | 0.00 | 0.00 | 0.00 | 40 | 1012.5 |
| 20260506230336 | 69 | 348 | 1.0 | 3.0 | 0.00 | 0.00 | 0.00 | 39 | 1011.9 |
| 20260506225832 | 69 | 270 | 0.0 | 4.0 | 0.00 | 0.00 | 0.00 | 37 | 1012.1 |
| 20260506225330 | 70 | 315 | 3.0 | 5.0 | 0.00 | 0.00 | 0.00 | 37 | 1011.7 |
| 20260506224827 | 70 | 291 | 0.0 | 4.0 | 0.00 | 0.00 | 0.00 | 37 | 1012.0 |
| 20260506224324 | 70 | 257 | 2.0 | 5.0 | 0.00 | 0.00 | 0.00 | 38 | 1011.9 |
| 20260506223820 | 70 | 301 | 4.0 | 5.0 | 0.00 | 0.00 | 0.00 | 37 | 1012.0 |
| 20260506223315 | 71 | 261 | 2.0 | 4.0 | 0.00 | 0.00 | 0.00 | 36 | 1012.0 |
| 20260506222813 | 73 | 194 | 1.0 | 2.0 | 0.00 | 0.00 | 0.00 | 36 | 1012.5 |
| 20260506222308 | 72 | 117 | 1.0 | 3.0 | 0.00 | 0.00 | 0.00 | 36 | 1012.4 |
| 20260506221806 | 73 | 77 | 0.0 | 3.0 | 0.00 | 0.00 | 0.00 | 38 | 1012.6 |
| 20260506221304 | 71 | 170 | 3.0 | 3.0 | 0.00 | 0.00 | 0.00 | 36 | 1012.8 |
| 20260506220801 | 72 | 23 | 0.0 | 3.0 | 0.00 | 0.00 | 0.00 | 37 | 1012.7 |
| 20260506220256 | 71 | 213 | 2.0 | 3.0 | 0.00 | 0.00 | 0.00 | 35 | 1012.8 |
| 20260506215753 | 70 | 279 | 2.0 | 3.0 | 0.00 | 0.00 | 0.00 | 35 | 1012.7 |
| 20260506215249 | 69 | 0 | 3.0 | 4.0 | 0.00 | 0.00 | 0.00 | 35 | 1012.9 |
| 20260506214745 | 71 | 311 | 3.0 | 5.0 | 0.00 | 0.00 | 0.00 | 34 | 1013.1 |
| 20260506214242 | 69 | 213 | 4.0 | 5.0 | 0.00 | 0.00 | 0.00 | 35 | 1013.1 |
| 20260506213740 | 69 | 283 | 0.0 | 6.0 | 0.00 | 0.00 | 0.00 | 37 | 1013.1 |
| 20260506213232 | 68 | 252 | 3.0 | 5.0 | 0.00 | 0.00 | 0.00 | 37 | 1013.5 |
| 20260506212729 | 68 | 98 | 0.0 | 3.0 | 0.00 | 0.00 | 0.00 | 35 | 1013.5 |
| 20260506212224 | 67 | 345 | 1.0 | 5.0 | 0.00 | 0.00 | 0.00 | 37 | 1013.6 |
| 20260506211720 | 68 | 111 | 1.0 | 2.0 | 0.00 | 0.00 | 0.00 | 36 | 1013.7 |
| 20260506211216 | 66 | 354 | 1.0 | 4.0 | 0.00 | 0.00 | 0.00 | 37 | 1013.7 |
| 20260506210713 | 66 | 26 | 1.0 | 4.0 | 0.00 | 0.00 | 0.00 | 36 | 1014.1 |
| 20260506210210 | 67 | 9 | 2.0 | 4.0 | 0.00 | 0.00 | 0.00 | 36 | 1014.0 |
| 20260506205707 | 66 | 315 | 3.0 | 4.0 | 0.00 | 0.00 | 0.00 | 37 | 1014.2 |
| 20260506205202 | 65 | 250 | 2.0 | 6.0 | 0.00 | 0.00 | 0.00 | 38 | 1014.1 |
| 20260506204700 | 66 | 255 | 2.0 | 7.0 | 0.00 | 0.00 | 0.00 | 37 | 1014.4 |
| 20260506204156 | 66 | 124 | 0.0 | 3.0 | 0.00 | 0.00 | 0.00 | 35 | 1014.1 |
| 20260506203655 | 66 | 56 | 2.0 | 4.0 | 0.00 | 0.00 | 0.00 | 37 | 1014.6 |
| 20260506203152 | 63 | 74 | 2.0 | 6.0 | 0.00 | 0.00 | 0.00 | 38 | 1014.2 |
| 20260506202650 | 65 | 57 | 2.0 | 5.0 | 0.00 | 0.00 | 0.00 | 36 | 1014.1 |
| 20260506202145 | 64 | 160 | 1.0 | 4.0 | 0.00 | 0.00 | 0.00 | 36 | 1014.6 |
| 20260506201642 | 62 | 40 | 2.0 | 6.0 | 0.00 | 0.00 | 0.00 | 38 | 1014.6 |
| 20260506201139 | 63 | 277 | 8.0 | 8.0 | 0.00 | 0.00 | 0.00 | 38 | 1014.6 |
| 20260506200636 | 64 | 235 | 4.0 | 7.0 | 0.00 | 0.00 | 0.00 | 39 | 1014.7 |
| 20260506200133 | 62 | 213 | 3.0 | 5.0 | 0.00 | 0.00 | 0.00 | 38 | 1014.8 |
| 20260506195629 | 61 | 293 | 5.0 | 7.0 | 0.00 | 0.00 | 0.00 | 40 | 1014.8 |
| 20260506195125 | 62 | 11 | 4.0 | 5.0 | 0.00 | 0.00 | 0.00 | 41 | 1015.0 |
| 20260506194623 | 61 | 261 | 0.0 | 2.0 | 0.00 | 0.00 | 0.00 | 39 | 1015.1 |
| 20260506194119 | 60 | 266 | 5.0 | 9.0 | 0.00 | 0.00 | 0.00 | 39 | 1015.2 |
| 20260506193617 | 60 | 277 | 3.0 | 5.0 | 0.00 | 0.00 | 0.00 | 41 | 1015.1 |
| 20260506193114 | 60 | 276 | 5.0 | 6.0 | 0.00 | 0.00 | 0.00 | 39 | 1015.5 |
| 20260506192611 | 59 | 259 | 4.0 | 8.0 | 0.00 | 0.00 | 0.00 | 40 | 1015.5 |
| 20260506192107 | 59 | 249 | 1.0 | 8.0 | 0.00 | 0.00 | 0.00 | 40 | 1015.5 |
| 20260506191604 | 59 | 305 | 3.0 | 6.0 | 0.00 | 0.00 | 0.00 | 41 | 1015.6 |
| 20260506191059 | 59 | 18 | 0.0 | 4.0 | 0.00 | 0.00 | 0.00 | 40 | 1016.0 |
| 20260506190557 | 60 | 312 | 5.0 | 8.0 | 0.00 | 0.00 | 0.00 | 41 | 1015.9 |
| 20260506190054 | 58 | 23 | 1.0 | 7.0 | 0.00 | 0.00 | 0.00 | 46 | 1016.0 |
| 20260506185551 | 59 | 279 | 3.0 | 5.0 | 0.00 | 0.00 | 0.00 | 45 | 1016.1 |
| 20260506185047 | 58 | 36 | 2.0 | 5.0 | 0.00 | 0.00 | 0.00 | 43 | 1016.2 |
| 20260506184545 | 57 | 66 | 0.0 | 8.0 | 0.00 | 0.00 | 0.00 | 42 | 1016.1 |
| 20260506184042 | 57 | 7 | 1.0 | 6.0 | 0.00 | 0.00 | 0.00 | 42 | 1016.4 |
| 20260506183538 | 55 | 248 | 2.0 | 6.0 | 0.00 | 0.00 | 0.00 | 49 | 1016.6 |
| 20260506183035 | 56 | 78 | 2.0 | 5.0 | 0.00 | 0.00 | 0.00 | 42 | 1016.5 |
| 20260506182532 | 55 | 281 | 2.0 | 6.0 | 0.00 | 0.00 | 0.00 | 46 | 1016.5 |
| 20260506182029 | 55 | 292 | 2.0 | 5.0 | 0.00 | 0.00 | 0.00 | 47 | 1016.6 |
| 20260506181527 | 54 | 300 | 5.0 | 6.0 | 0.00 | 0.00 | 0.00 | 45 | 1016.5 |
| 20260506181024 | 55 | 188 | 2.0 | 4.0 | 0.00 | 0.00 | 0.00 | 43 | 1016.7 |
| 20260506180520 | 54 | 294 | 4.0 | 5.0 | 0.00 | 0.00 | 0.00 | 47 | 1016.6 |
| 20260506180017 | 53 | 330 | 4.0 | 7.0 | 0.00 | 0.00 | 0.00 | 47 | 1016.7 |
| 20260506175513 | 53 | 250 | 4.0 | 5.0 | 0.00 | 0.00 | 0.00 | 46 | 1016.8 |
| 20260506175010 | 54 | 270 | 1.0 | 4.0 | 0.00 | 0.00 | 0.00 | 48 | 1017.0 |
| 20260506174508 | 53 | 243 | 0.0 | 4.0 | 0.00 | 0.00 | 0.00 | 45 | 1017.1 |
| 20260506174004 | 52 | 246 | 4.0 | 6.0 | 0.00 | 0.00 | 0.00 | 46 | 1016.9 |
| 20260506173502 | 52 | 82 | 2.0 | 6.0 | 0.00 | 0.00 | 0.00 | 48 | 1017.0 |
| 20260506172959 | 52 | 265 | 2.0 | 6.0 | 0.00 | 0.00 | 0.00 | 49 | 1017.4 |
| 20260506172456 | 52 | 272 | 4.0 | 5.0 | 0.00 | 0.00 | 0.00 | 49 | 1017.2 |
| 20260506171952 | 51 | 286 | 2.0 | 4.0 | 0.00 | 0.00 | 0.00 | 52 | 1017.2 |
| 20260506171450 | 50 | 251 | 3.0 | 6.0 | 0.00 | 0.00 | 0.00 | 53 | 1017.5 |
| 20260506170947 | 50 | 288 | 3.0 | 5.0 | 0.00 | 0.00 | 0.00 | 50 | 1017.6 |
| 20260506170443 | 50 | 330 | 3.0 | 5.0 | 0.00 | 0.00 | 0.00 | 52 | 1017.6 |
| 20260506165936 | 50 | 303 | 0.0 | 5.0 | 0.00 | 0.00 | 0.00 | 53 | 1017.5 |
| 20260506165434 | 49 | 334 | 2.0 | 4.0 | 0.00 | 0.00 | 0.00 | 53 | 1017.6 |
| 20260506164929 | 49 | 0 | 2.0 | 5.0 | 0.00 | 0.00 | 0.00 | 53 | 1018.0 |
| 20260506164427 | 49 | 103 | 2.0 | 6.0 | 0.00 | 0.00 | 0.00 | 51 | 1018.0 |
| 20260506163919 | 48 | 71 | 0.0 | 5.0 | 0.00 | 0.00 | 0.00 | 54 | 1017.9 |
| 20260506163414 | 48 | 199 | 4.0 | 4.0 | 0.00 | 0.00 | 0.00 | 52 | 1018.1 |
| 20260506162909 | 48 | 1 | 4.0 | 5.0 | 0.00 | 0.00 | 0.00 | 53 | 1018.1 |
| 20260506162407 | 47 | 280 | 5.0 | 6.0 | 0.00 | 0.00 | 0.00 | 55 | 1018.2 |
| 20260506161904 | 48 | 286 | 2.0 | 4.0 | 0.00 | 0.00 | 0.00 | 54 | 1018.3 |
| 20260506161402 | 46 | 124 | 5.0 | 5.0 | 0.00 | 0.00 | 0.00 | 55 | 1018.5 |
| 20260506160859 | 46 | 283 | 2.0 | 6.0 | 0.00 | 0.00 | 0.00 | 56 | 1018.5 |
| 20260506160356 | 47 | 328 | 1.0 | 3.0 | 0.00 | 0.00 | 0.00 | 56 | 1018.5 |
| 20260506155854 | 45 | 263 | 4.0 | 5.0 | 0.00 | 0.00 | 0.00 | 57 | 1018.7 |
| 20260506155350 | 46 | 248 | 2.0 | 2.0 | 0.00 | 0.00 | 0.00 | 54 | 1018.7 |
| 20260506153508 | 44 | 334 | 0.0 | 3.0 | 0.00 | 0.00 | 0.00 | 60 | 1018.8 |
| 20260506153005 | 44 | 289 | 0.0 | 3.0 | 0.00 | 0.00 | 0.00 | 59 | 1018.9 |
| 20260506152502 | 44 | 172 | 0.0 | 3.0 | 0.00 | 0.00 | 0.00 | 60 | 1019.0 |
| 20260506152000 | 43 | 253 | 2.0 | 5.0 | 0.00 | 0.00 | 0.00 | 60 | 1019.2 |
| 20260506151458 | 43 | 270 | 2.0 | 4.0 | 0.00 | 0.00 | 0.00 | 62 | 1019.2 |
| 20260506150955 | 42 | 285 | 2.0 | 4.0 | 0.00 | 0.00 | 0.00 | 61 | 1019.1 |
| 20260506150450 | 43 | 6 | 3.0 | 4.0 | 0.00 | 0.00 | 0.00 | 61 | 1019.1 |
| 20260506145948 | 43 | 3 | 2.0 | 5.0 | 0.00 | 0.00 | 0.00 | 60 | 1019.2 |
| 20260506145444 | 42 | 314 | 5.0 | 5.0 | 0.00 | 0.00 | 0.00 | 62 | 1019.3 |
| 20260506144942 | 42 | 284 | 3.0 | 4.0 | 0.00 | 0.00 | 0.00 | 61 | 1019.2 |
| 20260506144438 | 42 | 297 | 3.0 | 5.0 | 0.00 | 0.00 | 0.00 | 62 | 1019.2 |
| 20260506143937 | 43 | 15 | 3.0 | 3.0 | 0.00 | 0.00 | 0.00 | 62 | 1019.1 |
| 20260506143433 | 44 | 180 | 0.0 | 2.0 | 0.00 | 0.00 | 0.00 | 60 | 1019.2 |
| 20260506142932 | 42 | 282 | 0.0 | 3.0 | 0.00 | 0.00 | 0.00 | 62 | 1019.3 |
| 20260506142429 | 41 | 264 | 3.0 | 4.0 | 0.00 | 0.00 | 0.00 | 64 | 1019.2 |
| 20260506141927 | 40 | 199 | 4.0 | 5.0 | 0.00 | 0.00 | 0.00 | 65 | 1019.2 |
| 20260506141425 | 40 | 228 | 4.0 | 5.0 | 0.00 | 0.00 | 0.00 | 65 | 1019.2 |
| 20260506140923 | 40 | 291 | 3.0 | 3.0 | 0.00 | 0.00 | 0.00 | 65 | 1019.2 |
| 20260506140420 | 39 | 255 | 2.0 | 2.0 | 0.00 | 0.00 | 0.00 | 66 | 1019.1 |
| 20260506135916 | 39 | 251 | 1.0 | 3.0 | 0.00 | 0.00 | 0.00 | 66 | 1019.1 |
| 20260506135414 | 38 | 253 | 0.0 | 3.0 | 0.00 | 0.00 | 0.00 | 66 | 1019.2 |
| 20260506134910 | 38 | 174 | 1.0 | 3.0 | 0.00 | 0.00 | 0.00 | 66 | 1019.0 |
| 20260506134406 | 38 | 69 | 0.0 | 2.0 | 0.00 | 0.00 | 0.00 | 66 | 1019.2 |
| 20260506133903 | 38 | 139 | 4.0 | 7.0 | 0.00 | 0.00 | 0.00 | 66 | 1019.2 |
| 20260506133400 | 37 | 113 | 3.0 | 12.0 | 0.00 | 0.00 | 0.00 | 67 | 1018.9 |
| 20260506132856 | 37 | 124 | 9.0 | 12.0 | 0.00 | 0.00 | 0.00 | 68 | 1019.2 |
| 20260506132353 | 37 | 119 | 5.0 | 9.0 | 0.00 | 0.00 | 0.00 | 68 | 1019.2 |
| 20260506131852 | 36 | 108 | 5.0 | 10.0 | 0.00 | 0.00 | 0.00 | 68 | 1019.0 |
| 20260506131347 | 36 | 107 | 5.0 | 10.0 | 0.00 | 0.00 | 0.00 | 69 | 1019.1 |
| 20260506130845 | 35 | 125 | 5.0 | 8.0 | 0.00 | 0.00 | 0.00 | 70 | 1019.1 |
| 20260506130341 | 35 | 145 | 1.0 | 3.0 | 0.00 | 0.00 | 0.00 | 71 | 1019.1 |
| 20260506125839 | 35 | 109 | 5.0 | 5.0 | 0.00 | 0.00 | 0.00 | 71 | 1019.2 |
| 20260506125337 | 35 | 113 | 4.0 | 9.0 | 0.00 | 0.00 | 0.00 | 71 | 1019.1 |